Regional Weather Roundup
Issued by NWS

Home | Current Version | Previous Version | Text Only | Print | Product List | Glossary On
Versions: 1 2 3 4 5 6 7 8 9 10 11 12 13 14 15 16 17 18 19 20 21 22 23 24 25 26 27 28 29 30 31 32 33 34 35 36 37 38 39 40 41 42 43 44 45 46 47 48 49 50
000
ASUS44 KFWD 040610
RWRTX
NORTH TEXAS HOURLY WEATHER ROUNDUP
NATIONAL WEATHER SERVICE FORT WORTH TX
100 AM CDT SAT JUL 04 2015

NOTE: "FAIR" INDICATES FEW OR NO CLOUDS BELOW 12,000 FEET WITH NO
SIGNIFICANT WEATHER AND/OR OBSTRUCTIONS TO VISIBILITY.

TXZ118-119-040700-
DALLAS/FORT WORTH METROPLEX

CITY           SKY/WX    TMP DP  RH WIND       PRES   REMARKS
DFW AIRPORT    PTCLDY    83  70  64 S14       29.93S
6HR MIN TEMP:  82; 6HR MAX TEMP:  90;

DALLAS LOVE    MOCLDY    83  70  64 S9        29.93S
6HR MIN TEMP:  83; 6HR MAX TEMP:  90;

FTW MEACHAM    CLEAR     82  70  66 S9        29.93S
6HR MIN TEMP:  82; 6HR MAX TEMP:  89;

DAL-EXECUTIVE  PTCLDY    80  71  74 VRB6      29.94S
6HR MIN TEMP:  80; 6HR MAX TEMP:  88;

FTW-ALLIANCE   PTCLDY    80  69  69 S8        29.93S
6HR MIN TEMP:  78; 6HR MAX TEMP:  87;

FTW-NAS-JRB    CLEAR     80  71  74 S8        29.94R
6HR MIN TEMP:  80; 6HR MAX TEMP:  89;

FTW-SPINKS     PTCLDY    79  70  74 S7        29.96S HAZE
6HR MIN TEMP:  79; 6HR MAX TEMP:  89;

ARLINGTON      PTCLDY    82  70  66 S8        29.94S
6HR MIN TEMP:  82; 6HR MAX TEMP:  91;

GRAND PRAIRIE  PTCLDY    81  72  73 S8        29.95S
6HR MIN TEMP:  81; 6HR MAX TEMP:  90;

ADDISON        CLEAR     83  73  69 S9        29.95S
6HR MIN TEMP:  83; 6HR MAX TEMP:  90;

MESQUITE       CLEAR     77  72  84 S7        29.94S
6HR MIN TEMP:  77; 6HR MAX TEMP:  89;

LANCASTER      PTCLDY    78  70  76 S6        29.95F
6HR MIN TEMP:  78; 6HR MAX TEMP:  89;

$$

TXZ091>094-102>105-117-120-121-131>134-040700-
NORTH CENTRAL TEXAS

CITY           SKY/WX    TMP DP  RH WIND       PRES   REMARKS
SHRMAN/DENISON CLEAR     77  72  85 S6        29.95R
6HR MIN TEMP:  77; 6HR MAX TEMP:  86;

GAINESVILLE    CLEAR     75  69  80 S3        29.95R
6HR MIN TEMP:  75; 6HR MAX TEMP:  86;

BRIDGEPORT     CLEAR     78  70  76 S8        29.95S
6HR MIN TEMP:  75; 6HR MAX TEMP:  87;

DECATUR        CLEAR     79  67  65 S10       29.95S
6HR MIN TEMP:  79; 6HR MAX TEMP:  86;

DENTON         CLEAR     77  70  79 S8        29.92S
6HR MIN TEMP:  76; 6HR MAX TEMP:  87;

MCKINNEY       CLEAR     77  71  82 S6        29.93R
6HR MIN TEMP:  76; 6HR MAX TEMP:  84;

GREENVILLE     CLEAR     79  70  73 S9        29.93F
ROCKWALL       CLEAR     80  72  77 S10G20    29.93S
6HR MIN TEMP:  80; 6HR MAX TEMP:  87;

TERRELL        CLEAR     78  72  81 S6        29.95S
6HR MIN TEMP:  78; 6HR MAX TEMP:  86;

WAXAHACHIE     PTCLDY    77  73  85 S5        29.97R
6HR MIN TEMP:  77; 6HR MAX TEMP:  89;

CLEBURNE       PTCLDY    77  75  94 S7        29.97S
GRANBURY       CLOUDY    79  69  71 S3        29.96S
6HR MIN TEMP:  79; 6HR MAX TEMP:  88;

$$

TXZ083>090-098>101-113>116-127>130-139>142-154-155-040700-
WESTERN NORTH TEXAS

CITY           SKY/WX    TMP DP  RH WIND       PRES   REMARKS
WICHITA FALLS  CLEAR     74  70  87 S8        29.93S
6HR MIN TEMP:  74; 6HR MAX TEMP:  86; 6HR PCP: TRACE;

WF-KICKAPOO    CLEAR     78  71  77 CALM      29.94F
6HR MIN TEMP:  78; 6HR MAX TEMP:  88;

VERNON         MOCLDY    75  65  71 CALM      29.95F
6HR MIN TEMP:  75; 6HR MAX TEMP:  81;

ABILENE        MOCLDY    75  64  68 S6        29.99S
6HR MIN TEMP:  75; 6HR MAX TEMP:  90;

ABILENE-DYESS  MOCLDY    76  65  69 S8        29.98S
6HR MIN TEMP:  74; 6HR MAX TEMP:  90;

BRECKENRIDGE   MOCLDY    78  65  64 S8        29.95S
6HR MIN TEMP:  78; 6HR MAX TEMP:  90;

GRAHAM         CLEAR     78  68  71 S5        29.93S
6HR MIN TEMP:  76; 6HR MAX TEMP:  91;

MINERAL WELLS  CLEAR     77  69  76 S8        29.93S
6HR MIN TEMP:  77; 6HR MAX TEMP:  86;

STEPHENVILLE   CLEAR     74  67  79 CALM      30.00S
6HR MIN TEMP:  74; 6HR MAX TEMP:  88;

COMANCHE       CLEAR     76  69  78 S12       29.98F
6HR MIN TEMP:  76; 6HR MAX TEMP:  88;

BROWNWOOD      CLOUDY    75  66  73 S6        30.00R
COLEMAN        MOCLDY    75  67  76 S6        30.01R
6HR MIN TEMP:  75; 6HR MAX TEMP:  89;

BRADY          CLEAR     75  66  73 N9        30.01R
$$

TXZ143>147-156>162-174-175-040700-
CENTRAL TEXAS

CITY           SKY/WX    TMP DP  RH WIND       PRES   REMARKS
WACO           PTCLDY    79  72  79 S15       29.96S
6HR MIN TEMP:  79; 6HR MAX TEMP:  89;

WACO-MCGREGOR  PTCLDY    77  70  78 S10       29.97F
6HR MIN TEMP:  77; 6HR MAX TEMP:  88;

HILLSBORO      PTCLDY    78  71  78 S9        29.96R
6HR MIN TEMP:  78; 6HR MAX TEMP:  87;

CORSICANA      MOCLDY    81  72  74 S9        29.96S
6HR MIN TEMP:  81; 6HR MAX TEMP:  88;

MEXIA          PTCLDY    77  73  87 SE13G20   29.96S
6HR MIN TEMP:  75; 6HR MAX TEMP:  87;

HEARNE         CLEAR     76  74  94 SE5       29.99S FOG
6HR MIN TEMP:  76; 6HR MAX TEMP:  81;

CAMERON        CLEAR     78  74  87 S6        29.97S
6HR MIN TEMP:  78; 6HR MAX TEMP:  86;

TEMPLE         CLEAR     77  70  78 S9        29.97S
6HR MIN TEMP:  77; 6HR MAX TEMP:  88;

KILLEEN        CLEAR     76  70  82 S7        29.98S
6HR MIN TEMP:  76; 6HR MAX TEMP:  87; 6HR PCP: TRACE;

KILLEEN-SKYLRK CLEAR     77  66  69 S8        29.97S
6HR MIN TEMP:  77; 6HR MAX TEMP:  88;

FORT HOOD      CLEAR     77  70  78 S8        29.96F
6HR MIN TEMP:  77; 6HR MAX TEMP:  88;

GATESVILLE     CLEAR     81  70  69 S9        29.99F
HAMILTON       CLEAR     76  69  79 S10       30.00S
6HR MIN TEMP:  75; 6HR MAX TEMP:  88;

LAMPASAS       PTCLDY    78  72  80 S6        29.99
6HR MIN TEMP:  78; 6HR MAX TEMP:  91;

$$

TXZ095>097-106>112-122>126-135>138-148>153-164>167-040700-
EAST TEXAS

CITY           SKY/WX    TMP DP  RH WIND       PRES   REMARKS
PARIS          PTCLDY    77  72  83 SW9       29.93R
6HR MIN TEMP:  77; 6HR MAX TEMP:  84;

SULPHUR SPRNGS MOCLDY    79  73  81 SW9       29.96R
6HR MIN TEMP:  79; 6HR MAX TEMP:  84;

MOUNT PLEASANT PTCLDY    79  76  90 S8        29.94S
6HR MIN TEMP:  77; 6HR MAX TEMP:  83;

GILMER         MOCLDY    78  72  83 S5        29.95S THUNDER
6HR MIN TEMP:  77; 6HR MAX TEMP:  83;

MINEOLA        CLEAR     81  75  83 S5        29.95F
TYLER          PTCLDY    81  72  74 S12       29.95F
6HR MIN TEMP:  79; 6HR MAX TEMP:  88;

LONGVIEW       PTCLDY    82  73  74 S10       29.95S
6HR MIN TEMP:  82; 6HR MAX TEMP:  89;

MARSHALL       MOCLDY    76  73  88 S3        29.98S
6HR MIN TEMP:  75; 6HR MAX TEMP:  89;

ATHENS         PTCLDY    79  72  78 S6        29.95S
PALESTINE      MOCLDY    79  73  81 S7        29.98S
JACKSONVILLE   CLOUDY    77  73  86 S7        30.01R
HENDERSON      MOCLDY    77  73  87 S3        29.98S
6HR MIN TEMP:  77; 6HR MAX TEMP:  85;

CENTER         FAIR      77  73  87 S6        29.97F
6HR MIN TEMP:  77; 6HR MAX TEMP:  85;

NACOGDOCHES    MOCLDY   N/A N/A N/A S8        29.97F
LUFKIN         MOCLDY    80  74  81 S7        29.99S
6HR MIN TEMP:  79; 6HR MAX TEMP:  85;

$$

SUPPLEMENTAL OBSERVATIONS (CENTRAL)

CITY           SKY/WX    TMP DP  RH WIND       PRES   REMARKS
CADDO GRASSLND   N/A     79  73  83 SW7         N/A
PAT MAYSE LAKE   N/A     79  73  83 S5          N/A
GREENVILLE       N/A     79  72  78 S7          N/A
CEDAR HILL       N/A     81  70  69 S7          N/A
MCGREGOR         N/A     77  72  83 S8          N/A



USA.gov is the U.S. government's official web portal to all federal, state and local government web resources and services.